DateTimeUTC,F1_A11,F1_S11,BsB_S11,BsG_S11,BsR_S11,BbsB_S11,BbsG_S11,BbsR_S11,BaB_A11,BaG_A11,BaR_A11,Tu_S11,T_S11,Uu_S11,U_S11,P_S11,T1_A11
2021-05-17T07:00:00Z,00000200,21000000,,,,,,,0000.62,0000.21,-000.03,16.3,23.4,,00.0,0674.2,30.8
2021-05-17T07:01:00Z,00000200,21000000,,,,,,,-000.14,-000.14,-000.06,16.3,23.4,,00.0,0674.2,30.8
2021-05-17T07:02:00Z,00000200,21000000,,,,,,,-000.25,-000.42,-000.03,16.3,23.4,,00.0,0674.2,30.8
2021-05-17T07:03:00Z,00000200,61000000,,,,,,,0000.36,0000.49,0000.24,16.3,23.4,,00.0,0674.2,30.8
2021-05-17T07:04:00Z,00000200,41000000,0001.21,0001.42,0000.65,0000.07,0000.41,0000.19,0000.50,0000.70,0000.35,16.5,23.2,00.1,00.0,0675.2,30.8
2021-05-17T07:05:00Z,00000200,01000000,0002.10,0001.39,0000.74,0000.44,0000.34,0000.16,0000.36,0000.39,0000.34,16.5,23.1,00.1,00.1,0675.3,30.8
2021-05-17T07:06:00Z,00000200,01000000,0002.63,0001.43,0001.16,-000.05,0000.43,0000.23,0001.26,0000.86,0000.96,16.6,23.1,00.1,00.1,0675.3,30.8
2021-05-17T07:07:00Z,00000200,01000000,0002.29,0001.44,0001.05,0000.49,0000.39,0000.22,0000.59,0000.70,0000.09,16.6,23.1,00.1,00.1,0675.3,30.8
2021-05-17T07:08:00Z,00000200,01000000,0001.67,0001.39,0000.92,0000.25,0000.35,0000.20,0000.94,0000.53,0000.54,16.6,23.1,00.2,00.1,0675.3,30.8
2021-05-17T07:09:00Z,00000200,01000000,0001.66,0001.59,0000.99,0000.52,0000.23,0000.12,0000.40,0000.74,0000.81,16.6,23.1,00.2,00.1,0675.3,30.8
2021-05-17T07:10:00Z,00000200,01000000,0001.26,0001.67,0000.71,0000.57,0000.30,0000.17,0000.88,0000.66,0000.29,16.6,23.1,00.1,00.1,0675.3,30.8
2021-05-17T07:11:00Z,00000200,01000000,0002.25,0001.77,0001.06,0000.11,0000.52,0000.28,0000.65,0000.56,0000.48,16.6,23.1,00.2,00.1,0675.3,30.8
2021-05-17T07:12:00Z,00000200,01000000,0001.61,0001.88,0001.10,0000.36,0000.49,0000.28,0000.67,0000.43,0000.36,16.6,23.1,00.2,00.1,0675.3,30.8
2021-05-17T07:13:00Z,00000200,01000000,0002.14,0001.53,0001.17,-000.02,0000.54,0000.12,0000.98,0000.89,0000.53,16.5,23.1,00.2,00.1,0675.3,30.8
2021-05-17T07:14:00Z,00000200,01000000,0001.72,0001.48,0000.84,0000.53,0000.48,0000.18,0000.59,0000.69,0000.62,16.5,23.1,00.2,00.2,0675.3,30.8
2021-05-17T07:15:00Z,00000200,01000000,0001.83,0001.19,0000.78,-000.03,0000.21,0000.25,0000.91,0000.90,0000.58,16.5,23.0,00.3,00.2,0675.3,30.8
2021-05-17T07:16:00Z,00000200,01000000,0001.65,0001.19,0000.58,0000.81,0000.45,-000.04,0002.07,0001.75,0001.33,16.5,23.0,00.1,00.1,0675.3,30.8
2021-05-17T07:17:00Z,00000200,01000000,0002.02,0001.37,0000.83,-000.19,0000.12,0000.03,0000.57,0000.79,0000.36,16.5,23.0,00.1,00.1,0675.3,30.8
2021-05-17T07:18:00Z,00000200,01000000,0001.30,0001.04,0000.74,0000.13,0000.18,0000.20,0000.57,0000.13,0000.44,16.5,23.1,00.1,00.1,0675.3,30.8
2021-05-17T07:19:00Z,00000200,01000000,0001.56,0000.90,0000.91,0000.40,0000.39,-000.02,0000.54,0000.34,0000.40,16.6,23.1,00.2,00.1,0675.3,30.8
2021-05-17T07:20:00Z,00000200,01000000,0002.12,0001.59,0000.98,0000.64,0000.44,0000.11,0000.93,0000.29,0000.40,16.6,23.1,00.1,00.1,0675.3,30.8
2021-05-17T07:21:00Z,00000200,01000000,0002.22,0001.64,0000.86,-000.00,0000.21,0000.20,0000.41,0001.00,0000.50,16.6,23.1,00.1,00.1,0675.3,30.8
2021-05-17T07:22:00Z,00000200,01000000,0001.86,0001.22,0000.70,0000.52,0000.20,0000.19,0000.82,0000.94,0000.27,16.6,23.1,00.1,00.1,0675.3,30.8
2021-05-17T07:23:00Z,00000200,01000000,0000.75,0000.58,0000.38,0000.40,0000.21,-000.04,0000.01,-000.22,-000.10,16.6,23.1,00.1,00.1,0675.3,30.8
2021-05-17T07:24:00Z,00000200,01000000,0000.20,0000.20,0000.23,0000.20,-000.17,0000.06,-000.09,-000.20,-000.09,16.6,23.1,00.0,00.0,0675.3,30.8
2021-05-17T07:25:00Z,00000200,01000000,0000.29,-000.12,0000.31,0000.06,0000.33,0000.01,0000.05,0000.35,-000.02,16.6,23.1,00.0,00.0,0675.3,30.8
2021-05-17T07:26:00Z,00000200,01000000,0000.66,0000.38,0000.40,0000.02,0000.27,0000.05,0000.68,0000.29,0000.57,16.6,23.1,00.0,00.0,0675.3,30.8
2021-05-17T07:27:00Z,00000200,01000000,0001.33,0000.76,0000.66,0000.34,0000.31,0000.09,0000.15,0000.29,0000.13,16.6,23.1,00.0,00.0,0675.3,30.8
2021-05-17T07:28:00Z,00000200,01000000,0000.82,0000.60,0000.33,-000.15,0000.18,-000.16,0000.66,0000.64,0000.63,16.5,23.0,00.1,00.1,0675.3,30.8
2021-05-17T07:29:00Z,00000200,01000000,0001.64,0000.96,0000.87,0000.68,0000.43,0000.21,0000.53,0000.32,0000.15,16.5,23.0,00.1,00.1,0675.3,30.8
2021-05-17T07:30:00Z,00000200,01000000,0001.28,0001.02,0000.32,0000.33,0000.15,0000.03,0000.41,0000.47,0000.14,16.5,23.0,00.2,00.1,0675.3,30.8
2021-05-17T07:31:00Z,00000200,01000000,0002.07,0001.01,0000.63,0000.12,0000.34,0000.12,0000.50,0000.42,0000.82,16.5,23.0,00.2,00.1,0675.3,30.8
2021-05-17T07:32:00Z,00000200,01000000,0002.38,0001.17,0001.11,0000.19,0000.38,0000.10,0000.69,0000.64,0000.23,16.5,23.0,00.2,00.1,0675.3,30.8
2021-05-17T07:33:00Z,00000200,01000000,0002.23,0001.33,0001.03,0000.42,0000.36,0000.37,0000.39,0000.76,0000.69,16.5,23.0,00.2,00.1,0675.3,30.8
2021-05-17T07:34:00Z,00000200,01000000,0002.10,0001.25,0000.82,0000.78,0000.34,0000.23,0000.74,0000.80,0000.54,16.5,23.0,00.3,00.2,0675.3,30.8
2021-05-17T07:35:00Z,00000200,01000000,0001.86,0001.29,0000.75,0000.31,0000.50,0000.18,0001.10,0000.64,0000.43,16.6,23.1,00.4,00.3,0675.3,30.8
2021-05-17T07:36:00Z,00000200,01000000,0001.52,0001.40,0000.65,0000.19,0000.30,0000.10,0000.09,0000.34,0000.35,16.6,23.1,00.4,00.3,0675.3,30.8
2021-05-17T07:37:00Z,00000200,01000000,0001.49,0000.89,0000.66,0000.72,0000.09,-000.06,0000.88,0000.53,0000.44,16.6,23.1,00.4,00.3,0675.4,30.8
2021-05-17T07:38:00Z,00000200,01000000,0001.47,0001.31,0000.91,0000.24,0000.49,0000.42,0000.57,0000.49,0000.67,16.6,23.1,00.4,00.3,0675.3,30.8
2021-05-17T07:39:00Z,00000200,01000000,0002.49,0001.21,0000.91,0000.66,0000.19,0000.09,0000.18,0000.62,-000.09,16.6,23.0,00.5,00.3,0675.3,30.8
2021-05-17T07:40:00Z,00000200,01000000,0001.99,0001.17,0000.70,0000.45,0000.22,-000.08,0001.03,0000.72,0000.95,16.6,23.0,00.5,00.4,0675.3,30.8
2021-05-17T07:41:00Z,00000200,01000000,0000.90,0001.08,0000.71,0000.17,0000.44,0000.00,0000.52,0000.11,0000.07,16.6,23.0,00.5,00.4,0675.3,30.8
2021-05-17T07:42:00Z,00000200,01000000,0001.39,0001.06,0000.85,0000.10,0000.23,0000.43,0000.45,0000.59,0000.35,16.6,23.0,00.5,00.3,0675.3,30.8
2021-05-17T07:43:00Z,00000200,01000000,0001.12,0000.74,0000.56,0000.12,0000.42,-000.03,0000.43,0000.12,0000.27,16.6,23.0,00.6,00.4,0675.3,30.8
2021-05-17T07:44:00Z,00000200,01000000,0001.49,0000.80,0000.35,-000.05,0000.03,0000.15,0000.11,0000.48,0000.26,16.6,23.0,00.5,00.3,0675.3,30.8
2021-05-17T07:45:00Z,00000200,01000000,0000.55,0000.60,0000.43,-000.14,0000.02,0000.00,0000.80,0000.51,0000.34,16.6,23.0,00.5,00.3,0675.3,30.8
2021-05-17T07:46:00Z,00000200,01000000,0001.43,0000.38,0000.28,0000.17,-000.03,0000.05,-000.41,-000.26,-000.31,16.5,23.0,00.5,00.4,0675.3,30.8
2021-05-17T07:47:00Z,00000200,01000000,-000.27,0000.43,0000.44,0000.18,0000.24,0000.05,0000.26,0000.09,0000.08,16.5,23.0,00.5,00.3,0675.3,30.8
2021-05-17T07:48:00Z,00000200,01000000,0000.79,0000.18,0000.36,-000.28,0000.29,0000.24,-000.21,0000.29,0000.23,16.5,23.0,00.4,00.3,0675.3,30.8
2021-05-17T07:49:00Z,00000200,01000000,0000.33,0000.43,0000.15,0000.46,0000.14,-000.07,0000.40,-000.21,-000.40,16.5,23.0,00.4,00.3,0675.3,30.8
2021-05-17T07:50:00Z,00000200,01000000,0000.46,0000.50,0000.25,0000.15,0000.27,-000.11,0000.49,0000.41,0000.52,16.5,23.0,00.4,00.3,0675.3,30.8
2021-05-17T07:51:00Z,00000200,01000000,0001.61,0000.74,0000.67,-000.34,0000.35,0000.02,0000.12,0000.29,0000.31,16.5,23.0,00.4,00.3,0675.3,30.8
2021-05-17T07:52:00Z,00000200,01000000,0001.29,0000.95,0000.74,0000.03,0000.29,0000.10,0000.62,0000.52,0000.22,16.5,23.0,00.4,00.3,0675.3,30.8
2021-05-17T07:53:00Z,00000200,01000000,0001.43,0001.12,0000.86,0000.02,0000.19,0000.01,0000.18,0000.34,0000.56,16.5,22.9,00.5,00.3,0675.3,30.8
2021-05-17T07:54:00Z,00000200,01000000,0001.14,0000.93,0000.70,0000.65,0000.23,0000.09,0000.91,0000.54,0000.34,16.5,22.9,00.6,00.4,0675.3,30.8
2021-05-17T07:55:00Z,00000200,01000000,0001.53,0001.01,0000.85,0000.64,0000.33,0000.07,0000.29,0000.60,0000.83,16.4,22.9,00.6,00.4,0675.3,30.8
2021-05-17T07:56:00Z,00000200,01000000,0001.25,0001.02,0000.42,0000.34,0000.38,0000.03,0000.77,0000.40,0000.04,16.4,22.9,00.6,00.4,0675.3,30.8
2021-05-17T07:57:00Z,00000200,41000000,,,,,,,-000.28,-000.15,-000.13,16.5,22.9,00.6,00.4,0675.4,30.8
2021-05-17T07:58:00Z,00000200,61000000,,,,,,,0000.12,0000.31,-000.06,16.2,23.1,00.3,00.2,0674.3,30.8
2021-05-17T07:59:00Z,00000200,21000000,,,,,,,0000.04,-000.27,0000.06,16.1,23.2,00.3,00.2,0674.3,30.8
